Location: Boiro
(42.6475°N, 8.8834°W)
Time: 15:47:56
(UTC+01:00)

Vanguard 2 - Pass Details

Date: 02 December 2021
Orbit: 553 x 2936 km, 32.9° (Epoch: 23 January)

Event Time Altitude Azimuth Distance (km) Brightness Sun altitude
Rises 20:44:43 0° 266° (W) 4,389 12.6 -29.1°
Reaches altitude 10° 20:47:57 10° 254° (WSW) 3,747 11.9 -29.7°
Maximum altitude 20:55:47 25° 204° (SSW) 3,403 10.9 -31.1°
Drops below altitude 10° 21:06:34 10° 157° (SSE) 5,259 11.5 -33.1°
Enters shadow 21:11:32 - 147° (SSE) 6,373 11.9 -34.0°
